Hourly Weather Przymiarki

Today, 12 May, Wednesday

Time Temperature Precipitation Wind Pressure Humidity
00:00 +19°C° 0 mm 6 mps 742 mmHg 82%
01:00 +19°C° 0 mm 5 mps 742 mmHg 83%
02:00 +17°C° 0 mm 5 mps 742 mmHg 86%
03:00 +17°C° 0 mm 4 mps 742 mmHg 88%
04:00 +15°C° 0 mm 4 mps 742 mmHg 91%
05:00 +17°C° 0 mm 4 mps 742 mmHg 87%
06:00 +18°C° 0 mm 4 mps 742 mmHg 83%
07:00 +19°C° 0 mm 4 mps 743 mmHg 80%
08:00 +19°C° 0 mm 4 mps 743 mmHg 78%
09:00 +19°C° 0 mm 4 mps 743 mmHg 77%
10:00 +20°C° 0 mm 3 mps 744 mmHg 76%
11:00 +20°C° 0 mm 3 mps 744 mmHg 76%
12:00 +20°C° 0 mm 3 mps 744 mmHg 76%
13:00 +20°C° 0 mm 3 mps 744 mmHg 76%
14:00 +19°C° 0.1 mm 3 mps 744 mmHg 77%
15:00 +19°C° 0.1 mm 3 mps 744 mmHg 79%
16:00 +18°C° 0.1 mm 3 mps 744 mmHg 80%
17:00 +17°C° 0.1 mm 3 mps 744 mmHg 83%
18:00 +14°C° 0.1 mm 4 mps 744 mmHg 86%
19:00 +13°C° 0.1 mm 4 mps 744 mmHg 89%
20:00 +12°C° 0.2 mm 4 mps 744 mmHg 91%
21:00 +12°C° 0.2 mm 3 mps 744 mmHg 93%
22:00 +11°C° 0.2 mm 3 mps 744 mmHg 95%
23:00 +11°C° 0 mm 3 mps 744 mmHg 95%

Tomorrow, 13 May, Thursday

Time Temperature Precipitation Wind Pressure Humidity
00:00 +11°C° 0 mm 3 mps 743 mmHg 95%
01:00 +12°C° 0 mm 3 mps 743 mmHg 95%
02:00 +12°C° 0 mm 3 mps 743 mmHg 95%
03:00 +12°C° 0 mm 3 mps 742 mmHg 95%
04:00 +12°C° 0 mm 3 mps 742 mmHg 95%
05:00 +12°C° 0 mm 3 mps 742 mmHg 90%
06:00 +13°C° 0 mm 4 mps 742 mmHg 85%
07:00 +14°C° 0 mm 4 mps 742 mmHg 80%
08:00 +15°C° 0 mm 4 mps 741 mmHg 73%
09:00 +17°C° 0 mm 4 mps 741 mmHg 66%
10:00 +19°C° 0 mm 4 mps 741 mmHg 58%
11:00 +20°C° 0 mm 4 mps 740 mmHg 54%
12:00 +20°C° 0 mm 4 mps 740 mmHg 49%
13:00 +21°C° 0 mm 4 mps 740 mmHg 45%
14:00 +21°C° 0 mm 4 mps 739 mmHg 44%
15:00 +21°C° 0 mm 4 mps 739 mmHg 44%
16:00 +21°C° 0 mm 4 mps 739 mmHg 44%
17:00 +19°C° 0 mm 3 mps 739 mmHg 51%
18:00 +18°C° 0 mm 3 mps 739 mmHg 58%
19:00 +16°C° 0 mm 2 mps 739 mmHg 66%
20:00 +15°C° 0 mm 2 mps 739 mmHg 69%
21:00 +13°C° 0 mm 3 mps 739 mmHg 73%
22:00 +11°C° 0 mm 3 mps 739 mmHg 76%
23:00 +12°C° 0 mm 2 mps 739 mmHg 78%

Day after tomorrow, 14 May, Friday

Time Temperature Precipitation Wind Pressure Humidity
00:00 +12°C° 0 mm 2 mps 739 mmHg 80%
01:00 +12°C° 0 mm 2 mps 739 mmHg 82%
02:00 +12°C° 0 mm 2 mps 739 mmHg 84%
03:00 +12°C° 0 mm 2 mps 739 mmHg 86%
04:00 +12°C° 0 mm 2 mps 739 mmHg 89%
05:00 +12°C° 0 mm 2 mps 739 mmHg 89%
06:00 +12°C° 0 mm 2 mps 740 mmHg 90%
07:00 +12°C° 0 mm 2 mps 740 mmHg 90%
08:00 +11°C° 0.1 mm 3 mps 740 mmHg 90%
09:00 +11°C° 0.1 mm 3 mps 740 mmHg 90%
10:00 +11°C° 0.1 mm 3 mps 741 mmHg 90%
11:00 +11°C° 0.2 mm 3 mps 741 mmHg 89%
12:00 +11°C° 0.2 mm 3 mps 741 mmHg 89%
13:00 +11°C° 0.2 mm 3 mps 741 mmHg 88%
14:00 +10°C° 0.1 mm 3 mps 742 mmHg 88%
15:00 +10°C° 0.1 mm 3 mps 742 mmHg 88%
16:00 +10°C° 0.1 mm 4 mps 742 mmHg 87%
17:00 +9°C° 0.1 mm 3 mps 742 mmHg 89%
18:00 +9°C° 0.1 mm 3 mps 742 mmHg 90%
19:00 +8°C° 0.1 mm 3 mps 742 mmHg 92%
20:00 +8°C° 0.2 mm 3 mps 743 mmHg 93%
21:00 +8°C° 0.2 mm 3 mps 743 mmHg 94%
22:00 +8°C° 0.2 mm 3 mps 743 mmHg 95%
23:00 +8°C° 0.1 mm 3 mps 743 mmHg 96%

15 May, Saturday

Time Temperature Precipitation Wind Pressure Humidity
00:00 +8°C° 0.1 mm 3 mps 743 mmHg 96%
01:00 +8°C° 0.1 mm 3 mps 743 mmHg 97%
02:00 +8°C° 0.1 mm 3 mps 743 mmHg 97%
03:00 +8°C° 0.1 mm 3 mps 743 mmHg 97%
04:00 +8°C° 0.1 mm 3 mps 743 mmHg 97%
05:00 +8°C° 0.1 mm 3 mps 744 mmHg 96%
06:00 +8°C° 0.1 mm 3 mps 744 mmHg 95%
07:00 +8°C° 0.1 mm 3 mps 744 mmHg 94%
08:00 +9°C° 0 mm 3 mps 744 mmHg 85%
09:00 +11°C° 0 mm 4 mps 745 mmHg 76%
10:00 +12°C° 0 mm 4 mps 745 mmHg 68%
11:00 +14°C° 0 mm 4 mps 745 mmHg 62%
12:00 +15°C° 0 mm 4 mps 745 mmHg 56%
13:00 +17°C° 0 mm 4 mps 745 mmHg 50%
14:00 +17°C° 0 mm 4 mps 745 mmHg 51%
15:00 +17°C° 0 mm 3 mps 745 mmHg 53%
16:00 +17°C° 0 mm 3 mps 745 mmHg 54%
17:00 +14°C° 0 mm 3 mps 745 mmHg 62%
18:00 +14°C° 0 mm 2 mps 745 mmHg 69%
19:00 +13°C° 0 mm 2 mps 745 mmHg 77%
20:00 +10°C° 0 mm 2 mps 745 mmHg 79%
21:00 +9°C° 0 mm 2 mps 745 mmHg 82%
22:00 +8°C° 0 mm 2 mps 745 mmHg 85%
23:00 +8°C° 0 mm 2 mps 745 mmHg 85%

16 May, Sunday

Time Temperature Precipitation Wind Pressure Humidity
00:00 +8°C° 0 mm 2 mps 745 mmHg 84%
01:00 +8°C° 0 mm 2 mps 745 mmHg 84%
02:00 +9°C° 0 mm 2 mps 745 mmHg 85%
03:00 +9°C° 0 mm 2 mps 745 mmHg 86%
04:00 +9°C° 0 mm 2 mps 745 mmHg 87%
05:00 +10°C° 0.3 mm 2 mps 745 mmHg 88%
06:00 +10°C° 0.3 mm 2 mps 746 mmHg 89%
07:00 +12°C° 0.3 mm 2 mps 746 mmHg 89%
08:00 +12°C° 1.4 mm 2 mps 746 mmHg 89%
09:00 +12°C° 1.4 mm 2 mps 746 mmHg 89%
10:00 +12°C° 1.4 mm 2 mps 746 mmHg 89%
11:00 +13°C° 0.6 mm 2 mps 746 mmHg 84%
12:00 +14°C° 0.6 mm 2 mps 746 mmHg 78%
13:00 +14°C° 0.6 mm 3 mps 746 mmHg 73%
14:00 +15°C° 0.1 mm 2 mps 746 mmHg 72%
15:00 +16°C° 0.1 mm 2 mps 746 mmHg 70%
16:00 +16°C° 0.1 mm 2 mps 745 mmHg 69%
17:00 +15°C° 0.1 mm 2 mps 745 mmHg 74%
18:00 +14°C° 0.1 mm 2 mps 745 mmHg 79%
19:00 +13°C° 0.1 mm 2 mps 745 mmHg 85%
20:00 +12°C° 0 mm 2 mps 745 mmHg 88%
21:00 +10°C° 0 mm 2 mps 745 mmHg 91%
22:00 +9°C° 0 mm 2 mps 745 mmHg 95%
23:00 +10°C° 0 mm 1 mps 745 mmHg 94%

17 May, Monday

Time Temperature Precipitation Wind Pressure Humidity
00:00 +10°C° 0 mm 1 mps 745 mmHg 94%
01:00 +10°C° 0 mm 1 mps 744 mmHg 94%
02:00 +10°C° 0 mm 1 mps 744 mmHg 94%
03:00 +9°C° 0 mm 1 mps 744 mmHg 94%
04:00 +9°C° 0 mm 1 mps 744 mmHg 94%
05:00 +11°C° 0 mm 1 mps 744 mmHg 90%
06:00 +12°C° 0 mm 2 mps 744 mmHg 87%
07:00 +13°C° 0 mm 2 mps 744 mmHg 83%
08:00 +14°C° 0.2 mm 2 mps 744 mmHg 79%
09:00 +15°C° 0.2 mm 2 mps 744 mmHg 74%
10:00 +16°C° 0.2 mm 2 mps 743 mmHg 70%
11:00 +16°C° 0.7 mm 3 mps 743 mmHg 69%
12:00 +17°C° 0.7 mm 3 mps 743 mmHg 68%
13:00 +17°C° 0.7 mm 3 mps 743 mmHg 67%
14:00 +17°C° 0.5 mm 3 mps 743 mmHg 69%
15:00 +17°C° 0.5 mm 3 mps 743 mmHg 70%
16:00 +16°C° 0.5 mm 3 mps 744 mmHg 72%
17:00 +14°C° 0.5 mm 3 mps 744 mmHg 77%
18:00 +14°C° 0.5 mm 2 mps 744 mmHg 83%
19:00 +13°C° 0.5 mm 2 mps 744 mmHg 89%
20:00 +12°C° 0.2 mm 2 mps 744 mmHg 91%
21:00 +11°C° 0.2 mm 1 mps 744 mmHg 93%
22:00 +9°C° 0.2 mm 1 mps 744 mmHg 95%
23:00 +9°C° 0 mm 1 mps 745 mmHg 96%
Show more

We Need Your Consent

Meteoprog and our Service Providers may store and access personal data such as cookies, device identifiers or other similar technologies on your device and process such data to personalise content and ads, as well as provide social media features and to analyse the traffic.

  • Store and/or access information on your device

    Cookies, device identifiers or other information can be stored or accessed on your device for the purposes indicated above.

  • Personalised ads and content, ad and content measurement, audience insights, and products development

    Ads and content can be personalised based on a profile. More data can be added to better personalise ads and content. Ad and content performance can be measured. Insights about the audience who saw the ads and content can be derived. Such data can be used to develop or improve user’s experience, systems and software.

By clicking ‘I Agree’ you will allow the use of indicated cookies, device identifiers, web beacons or other similar technologies. Your settings can be changed in the browser on your device.

For certain purposes, legitimate interests may be relied on, rather than consent. You can read more about this in our Privacy and Cookie Policy.